Other Public Products
Issued by NWS Grand Forks, ND

Home | Current Version | Previous Version | Text Only | Print | Product List | Glossary Off
Versions: 1 2 3 4 5 6 7 8 9 10 11 12 13 14 15 16 17 18 19 20 21 22 23 24 25 26 27 28 29 30 31 32 33 34 35 36 37 38 39 40 41 42 43 44 45 46 47 48 49 50

000
FPUS83 KFGF 260310
OPUFGF
PRAIRIE TO PINES WEATHER ROUNDUP
NATIONAL WEATHER SERVICE EASTERN NORTH DAKOTA/GRAND FORKS ND
900 PM CST THU DEC 25 2014

 **SATELLITE DATA USED TO AUGMENT SKY COVER AT AUTOMATED STATIONS**
 *****  WEATHER ACROSS EASTERN NORTH DAKOTA  *****

CITY           SKY/WX    TMP DP  RH WIND       PRES   REMARKS
GRAND FORKS    CLOUDY    25  21  85 N14       29.97R WCI  13
GRAND FORKS AF CLOUDY    26  25  96 N10       29.98R WCI  15
GRAND CITY NWS   N/A     25 N/A N/A N15         N/A  WCI  12
BUXTON         NOT AVBL
DEVILS LAKE    CLOUDY    25  19  80 N8        29.95R WCI  16
FARGO          CLOUDY    28  22  78 N13       29.95R WCI  17
WAHPETON ARPT  CLOUDY    28  23  80 N14       29.94R WCI  17
$$

 *****  WEATHER ACROSS CENTRAL AND WESTERN NORTH DAKOTA  *****

CITY           SKY/WX    TMP DP  RH WIND       PRES   REMARKS
JAMESTOWN      CLOUDY    26  22  84 N8        29.95R WCI  18
BISMARCK       CLOUDY    26  20  77 NW9       30.00R WCI  17
MINOT          CLOUDY    23  17  78 NW15      29.99R WCI  10
MINOT AFB      CLOUDY    21  20  96 NW15      30.00R WCI   8
GARRISON         N/A     24  19  81 NW15      29.98R WCI  11
WILLISTON      CLOUDY    20  13  74 N9        30.05R WCI   9
DICKINSON      CLOUDY    22  16  78 NW12      29.97R WCI  10
HETTINGER      CLOUDY    22  17  81 NW15      29.98R WCI   9
$$

 *****  OTHER OBSERVATIONS NORTHEAST NORTH DAKOTA  *****

CITY           SKY/WX    TMP DP  RH WIND       PRES   REMARKS
WALHALLA         N/A     25  23  93 NW10      29.98R WCI  15
LANGDON        CLOUDY    23  19  86 N8        29.94R WCI  14
CAVALIER       CLOUDY    25  23  93 N6        29.97R WCI  18
GRAFTON        NOT AVBL
CANDO          CLOUDY    23  18  80 NW13      29.97R WCI  11
FORT TOTTEN      N/A     24  21  89 N5        29.95S WCI  18
ROLLA          CLOUDY    18  18 100 NW14      29.96R WCI   4
RUGBY          CLOUDY    21  18  86 NW12      29.98R WCI   9
 ***** THE ABOVE OBSERVATIONS ARE NON NWS ARE NOT QUALITY
        CONTROLLED AND MAY MIS-REPORT RAIN FOR SNOW...
$$

 *****  OTHER OBSERVATIONS SOUTHEAST NORTH DAKOTA *****

CITY           SKY/WX    TMP DP  RH WIND       PRES   REMARKS
COOPERSTOWN    NOT AVBL
VALLEY CITY    CLOUDY    25  25 100 N10       29.95R WCI  15
OAKES            N/A     27  25  93 N13       29.94R WCI  16
GWINNER        CLOUDY    30  28  93 N10       29.95R WCI  21
BUFFALO        NOT AVBL
WYNDMERE         N/A     27  25  93 VRB9        N/A  WCI  17
 ***** THE ABOVE OBSERVATIONS ARE NON NWS ARE NOT QUALITY
       CONTROLLED AND MAY MIS-REPORT RAIN FOR SNOW...
$$

  *****  WEATHER ACROSS NORTHERN MINNESOTA  *****

CITY           SKY/WX    TMP DP  RH WIND       PRES   REMARKS
FLAG ISLAND    CLOUDY    25  21  86 NW12      29.90R WCI  14
WARROAD        CLOUDY    25  21  86 NW13      29.92R WCI  13
ROSEAU         CLOUDY    27  21  80 NW7       29.92R WCI  19
HALLOCK        CLOUDY    25  21  86 N9        29.96R WCI  15
THF RVR FALLS  CLOUDY    27  21  80 N8        29.94R WCI  18
HALSTAD          N/A     27  21  80 N10         N/A  WCI  17
FOSSTON        CLOUDY    23  21  93 N8        29.92R WCI  14
BAUDETTE       CLOUDY    27  22  81 NW7       29.88R WCI  19
WASKISH        CLOUDY    27  23  86 CALM      29.90R
CROOKSTON      CLOUDY    27  21  80 N9        29.97R WCI  17
$$
  *****  WEATHER ACROSS CENTRAL AND WEST MINNESOTA  *****

CITY           SKY/WX    TMP DP  RH WIND       PRES   REMARKS
BEMIDJI        CLOUDY    25  22  87 N6        29.89R WCI  18
PARK RAPIDS    CLOUDY    27  21  78 N10       29.88R WCI  17
WADENA         CLOUDY    27  23  86 N3        29.88R
DETROIT LAKES  CLOUDY    27  23  86 CALM      29.92R
MOORHEAD       CLOUDY    28  27  93 N8        29.96R WCI  20
FERGUS FALLS   CLOUDY    27  19  74 N9G16     29.95R WCI  17
ELBOW LAKE     CLOUDY    28  24  86 N9        29.89R WCI  19
MORRIS MN      LGT SNOW  28  27  93 N10       29.89R WCI  19
STAPLES        CLOUDY    28  23  80 N5        29.88R WCI  23
WHEATON        CLOUDY    27  23  86 N9        29.94R WCI  17
$$
  *****  WEATHER ELSEWHERE ACROSS MINNESOTA  *****

CITY           SKY/WX    TMP DP  RH WIND       PRES   REMARKS
DULUTH         CLOUDY    31  25  78 N3        29.85R
INTRNTL FALLS  CLOUDY    27  22  81 NW3       29.87R
ELY            CLOUDY    28  25  86 CALM      29.85R
CLOQUET        CLOUDY    30  27  86 CALM      29.86R
BRAINERD       CLOUDY    30  25  81 CALM      29.88R
HIBBING        CLOUDY    30  23  75 N7        29.86R WCI  23
ALEXANDRIA     CLOUDY    29  24  82 N7        29.88R WCI  22
SAINT CLOUD    LGT SNOW  34  30  85 NE3       29.86S FOG
MINNEAPOLIS    CLOUDY    33  30  88 N6        29.85F
$$

  *****  WEATHER ACROSS SOUTH DAKOTA  *****

CITY           SKY/WX    TMP DP  RH WIND       PRES   REMARKS
SIOUX FALLS    FRZ DRZL  30  28  92 N17G23    29.80R FOG     WCI  18
BROOKINGS      NOT AVBL
WATERTOWN      LGT SNOW  26  24  92 N9        29.87R FOG     WCI  17
HURON          LGT SNOW  26  24  92 N14       29.92R VSB 1   WCI  14
SISSETON       NOT AVBL
ABERDEEN       CLOUDY    28  22  78 N10       29.95R WCI  19
MITCHELL       CLOUDY    27  25  92 N21       29.88R WCI  13
PIERRE         CLOUDY    26  22  84 N17       29.95R WCI  13
MOBRIDGE       CLOUDY    28  22  78 NW10      29.94R WCI  19
RAPID CITY     FLURRIES  22  18  85 N20       29.95R WCI   7
$$

  *****  SOME WEATHER IN NEARBY STATES *****

CITY           SKY/WX    TMP DP  RH WIND       PRES   REMARKS
GLASGOW MT     CLOUDY    21  14  74 NE8       30.03R WCI  11
GREAT FALLS MT CLEAR     17  11  77 S14       29.91F WCI   3
CHEYENNE WY    FOG       18  14  84 NE14      29.76R VSB 1/2 WCI   4
SCOTTSBLUFF NE LGT SNOW  23  20  88 N13       29.87R VSB 1   WCI  11
OMAHA NE       MOCLDY    38  31  76 CALM      29.71R
DES MOINES IA  CLOUDY    43  30  60 SE13      29.77R
DAVENPORT IA   PTCLDY    40  32  73 S15       29.91R
CHICAGO IL     CLOUDY    40  34  79 S15       29.97F
EAU CLAIRE WI  CLOUDY    31  28  89 NE3       29.86S
LA CROSSE WI   CLOUDY    31  29  92 CALM      29.86R
$$

  *****  SOME NATIONAL WEATHER *****

CITY           SKY/WX    TMP DP  RH WIND       PRES   REMARKS
LA GUARDIA NY  PTCLDY    47  28  47 W15G22    30.08R
RALEIGH NC     CLEAR     39  33  79 CALM      30.25R
ATLANTA GA     PTCLDY    40  34  79 CALM      30.25S
NEW ORLEANS LA MOCLDY    47  40  76 SE6       30.21F
OKLAHOMA CITY  MOCLDY    50  28  42 S22       29.80R
ALBUQUERQUE NM MOCLDY    41  25  53 NW14      29.67R
SALT LAKE CITY CLOUDY    29  24  82 N17       29.80R WCI  17
LOS ANGELES CA CLEAR     55  19  24 NW18G28   29.89R
BOISE ID       CLEAR     31  22  69 W14       30.03R WCI  21
SEATTLE WA     PTCLDY    39  36  89 SW3       30.25R
$$

*** WEATHER ACROSS MANITOBA...SASKATCHEWAN AND ONTARIO ***
                ***ONTARIO***

CITY           SKY/WX    TMP DP  RH WIND       PRES   REMARKS
GERALDTON      CLOUDY    28  27  93 SW5       29.77R WCI  23
THUNDER BAY    CLOUDY    30  28  93 SW8       29.85R WCI  23
SIOUX LOOKOUT  NOT AVBL
TORONTO        CLOUDY    37  28  70 W18G24    30.08R
BIG TROUT LK   FLURRIES  19  18  93 NW8       29.73S WCI   9
PICKLE LAKE    NOT AVBL
DRYDEN         FLURRIES  27  27 100 W9        29.83R WCI  17
KENORA         LGT SNOW  23  23 100 NW9       29.87R WCI  13
$$
                *** MANITOBA***

CITY           SKY/WX    TMP DP  RH WIND       PRES   REMARKS
BRANDON        CLOUDY    21  16  79 NW10      29.99S WCI  10
DAUPHIN        FLURRIES  14  10  85 NE8       30.02R WCI   3
ISLAND LAKE    FLURRIES  21  19  93 W8        29.84R WCI  12
PILOT MOUND    NOT AVBL
THE PAS        CRYSTALS   0  -6  78 NW15      30.06R WCI -20
THOMPSON       NOT AVBL
WINNIPEG       FLURRIES  23  21  93 NW9       29.98R WCI  13
CHURCHILL      LGT SNOW   0  -6  78 NW16      29.90R DRFTSNOWWCI -21
GILLAM         LGT SNOW   5   1  85 NW12      29.88R VSB 1   WCI -11
$$
                ***SASKATCHEWAN***

CITY           SKY/WX    TMP DP  RH WIND       PRES   REMARKS
ESTEVAN        PTCLDY     3  -2  78 NW10      30.04R WCI -12
KINDERSLEY     NOT AVBL
LLOYDMINSTER   FLURRIES   7   3  85 SE3       30.01R
PRINCE ALBERT  PTCLDY   -11 -17  77 NW7       30.10S WCI -26
REGINA         PTCLDY    -2  -6  84 W6        30.07R WCI -14
YORKTON        CLEAR     -6  -9  84 W12       30.04R WCI -24
N. BATTLEFORD  CLOUDY     3   0  85 CALM      30.09R


USA.gov is the U.S. government's official web portal to all federal, state and local government web resources and services.